Weather in Povarovka

Russia / Kaliningrad Oblast     54°49′55″N   20°00′38″E
temp.,
°C
wind,
m/s
gust,
m/s
humid.,
%
clouds,
%
prec.,
mm/h
press.,
hPa
HPBL,
m
14 april, wed
wed1423:00+3nw3588100 0.0 1024184
02:00+3wnw3590100 0.0 1023178
05:00+3nw2488100 0.0 1022114
08:00+4nnw2381100 0.0 1022194
11:00+6n4570100 0.0 1023485
14:00+6n6871100 0.0 1023632
17:00+5n71074100 0.0 1023515
20:00+4n81282100 0.0 1023493
15 april, thu
thu1523:00+4n71185100 0.1 1023425
02:00+3nne81391100 0.2 1023647
05:00+3nne91592100 0.8 1022702
08:00+3nne91597100 2.1 1022645
11:00+4ne91488100 0.6 1022705
14:00+5ne81487100 0.9 1022594
17:00+6ne61382100 0.2 1023570
20:00+7nne61277100 0.3 1023350
16 april, fri
fri1623:00+6ne7137090 0.0 1023320
02:00+5nne6127583 0.0 1023324
05:00+3nne6118231 0.0 1023305
08:00+4nne6107984 0.0 1023380
11:00+6nne7971100 0.0 1023517
14:00+6nne6981100 0.0 1023493
17:00+6nne5879100 0.0 1023455
20:00+6nne5986100 0.2 1023295
17 april, sat
sat1723:00+6nne4989100 0.4 1023286
02:00+5ne4990100 0.6 1023186
05:00+6ne489298 0.3 1023246
08:00+8ne598490 0.0 1022268
11:00+6ne4890100 0.6 1024268
14:00+7ne4692100 1.1 1024241
17:00+8ene4689100 0.1 1024335
20:00+8ne4793100 0.1 1024206
18 april, sun
sun1823:00+8ne5989100 0.0 1024193
02:00+8ne4887100 0.0 1023193
05:00+7nne61185100 0.0 1022272
08:00+7ne5996100 2.6 1021261
11:00+7ese3597100 1.3 1021236
14:00+11e698146 0.1 1023490
17:00+10e587586 0.5 1021454
20:00+8ene478694 0.6 1022141